Tracking 25701 objects as of 4-Jul-2022
HD Live streaming from Space Station
objects crossing your sky now

ATLAS 5 CENTAUR DEB

Track ATLAS 5 CENTAUR DEB now!


NORAD ID: 44039
Int'l Code: 2014-055BZ
Perigee: 7,925.6 km
Apogee: 34,516.3 km
Inclination: 21.1 °
Period: 760.2 minutes
Semi major axis: 27591 km
RCS: Unknown
Launch date: September 17, 2014
Source: United States (US)
Launch site: ()

Note: This is SATELLITE DEBRIS
aabbcc
Your satellite tracking list
Your tracking list is empty




NASA's NSSDC Master Catalog

Two Line Element Set (TLE):
1 44039U 14055BZ  22173.68195722 -.00000113  00000-0  00000-0 0  9996
2 44039  21.1405 275.4642 4818553 295.1006  23.1549  1.89421091 24906
Source of the keplerian elements: AFSPC